Pasco, WA
on Thursday, December 20, 2012

Thursday
Previous Day Next Day
Daily Summary
 ActualAverageRecord
Temperature
Mean Temperature °F 32°F  
Max Temperature 60°F 39°F 64°F (1994)
Min Temperature 41°F 26°F 0°F (1990)
Degree Days
Heating Degree Days 14 33  
Month to date heating degree days 464 627  
Since 1 July heating degree days 1561 1856  
Cooling Degree Days 0 0  
Month to date cooling degree days 0 0  
Year to date cooling degree days 788 710  
Moisture
Dew Point 27°F   
Average Humidity 56    
Maximum Humidity 86    
Minimum Humidity 25    
Precipitation
Precipitation 0.01 in in 0.42 in (1952)
Month to date precipitation 0.54  
Year to date precipitation 9.10  
Snow
Snow 0.00 in in in ()
Snow Depth 0.00 in   
Wind
Wind Speed 21 mph   
Max Wind Speed 33 mph   
Max Gust Speed 41 mph   
Visibility 10 miles   
Events Rain   

Key: T is trace of precipitation, MM is missing value
Source: NWS Daily Summary
Time(PST)TemperatureDew PointHumidity Pressure Visibility Wind DirectionWind SpeedGust SpeedPrecipitationEvents Conditions
12:53 AM 46.0°F 24.1°F 42% 29.81 in 10.0 miles SSE 24.2 mph - N/A   Scattered Clouds
1:53 AM 46.9°F 24.1°F 41% 29.79 in 10.0 miles South 28.8 mph 38.0 mph N/A   Partly Cloudy
2:53 AM 46.0°F 24.1°F 42% 29.78 in 10.0 miles SSE 32.2 mph 38.0 mph N/A   Partly Cloudy
3:53 AM 45.0°F 24.1°F 44% 29.75 in 10.0 miles SSE 26.5 mph 34.5 mph N/A   Clear
4:53 AM 46.9°F 21.9°F 37% 29.73 in 10.0 miles SSE 23.0 mph 29.9 mph N/A   Clear
5:53 AM 46.9°F 21.0°F 36% 29.73 in 10.0 miles SSE 23.0 mph - N/A   Scattered Clouds
6:53 AM 48.9°F 21.0°F 33% 29.72 in 10.0 miles SSE 24.2 mph 34.5 mph N/A   Clear
7:53 AM 46.9°F 19.9°F 34% 29.71 in 10.0 miles SSE 25.3 mph 32.2 mph N/A   Clear
8:53 AM 48.9°F 19.9°F 32% 29.72 in 10.0 miles SE 26.5 mph 36.8 mph N/A   Overcast
9:53 AM 48.9°F 19.9°F 32% 29.70 in 10.0 miles East 26.5 mph 35.7 mph N/A   Mostly Cloudy
10:53 AM 50.0°F 21.9°F 33% 29.70 in 10.0 miles East 23.0 mph - N/A   Overcast
11:53 AM 57.0°F 23.0°F 27% 29.69 in 10.0 miles SSE 16.1 mph 29.9 mph N/A   Overcast
12:53 PM 59.0°F 25.0°F 27% 29.68 in 10.0 miles SSW 13.8 mph 26.5 mph N/A   Mostly Cloudy
1:53 PM 60.1°F 24.1°F 25% 29.69 in 10.0 miles SSW 18.4 mph 29.9 mph N/A   Overcast
2:53 PM 57.0°F 24.1°F 28% 29.71 in 10.0 miles SW 24.2 mph 32.2 mph N/A   Mostly Cloudy
3:53 PM 52.0°F 28.9°F 41% 29.75 in 10.0 miles West 11.5 mph 19.6 mph N/A   Overcast
4:53 PM 50.0°F 30.0°F 46% 29.79 in 10.0 miles West 13.8 mph - N/A   Overcast
5:53 PM 46.9°F 32.0°F 56% 29.81 in 10.0 miles West 16.1 mph - N/A   Overcast
6:53 PM 46.0°F 32.0°F 58% 29.85 in 10.0 miles Calm Calm - N/A   Overcast
7:31 PM 44.6°F 32.0°F 61% 29.85 in 10.0 miles SE 11.5 mph - N/A   Overcast
7:53 PM 45.0°F 33.1°F 63% 29.86 in 10.0 miles SE 12.7 mph - 0.00 in Rain Light Rain
8:53 PM 45.0°F 33.1°F 63% 29.88 in 10.0 miles South 8.1 mph - 0.00 in   Overcast
9:53 PM 42.1°F 35.1°F 76% 29.89 in 10.0 miles South 8.1 mph - 0.00 in Rain Light Rain
10:53 PM 41.0°F 37.0°F 86% 29.90 in 10.0 miles Calm Calm - 0.01 in Rain Light Rain
11:53 PM 41.0°F 37.0°F 86% 29.88 in 10.0 miles ESE 9.2 mph - 0.00 in   Overcast
Moon Phase
Dec. 20 Dec. 28 Jan. 04 Jan. 11 Jan. 18
Sunrise:07:36 AM (PST) Moon Rise:11:49 AM (PST)
Sunset:04:12 PM (PST) Moon Set:12:10 AM (PST)

Copyright © 2014 The Weather Underground, Inc.